Location: Unspecified
(40.7945°N, 0.0000°E)
Time: 04:45:18
(UTC+00:00)

METEOR M2 - Visible Passes

Search period start: 26 November 2020 00:00
Search period end: 06 December 2020 00:00
Orbit: 819 x 827 km, 98.5° (Epoch: 25 November)

Date Brightness Start Highest point End Pass type
(mag) Time Alt. Az. Time Alt. Az. Time Alt. Az.
26 Nov ? 18:02:59 15° NNE 18:02:59 15° NNE 18:04:25 10° NNE visible
26 Nov ? 19:44:25 17° NNW 19:44:25 17° NNW 19:45:41 10° NNW visible
27 Nov ? 17:42:56 11° NE 17:42:56 11° NE 17:43:30 10° NNE visible
27 Nov ? 19:24:21 19° NNW 19:24:21 19° NNW 19:25:51 10° NNW visible
28 Nov ? 19:04:16 20° N 19:04:16 20° N 19:05:53 10° N visible
29 Nov ? 18:44:11 19° N 18:44:11 19° N 18:45:48 10° N visible
30 Nov ? 18:24:05 17° NNE 18:24:05 17° NNE 18:25:32 10° N visible
30 Nov ? 20:05:30 12° NNW 20:05:30 12° NNW 20:05:57 10° NNW visible
01 Dec ? 18:03:59 14° NNE 18:03:59 14° NNE 18:05:05 10° NNE visible
01 Dec ? 19:45:25 15° NNW 19:45:25 15° NNW 19:46:18 10° NNW visible
02 Dec ? 17:43:53 11° NE 17:43:53 11° NE 17:44:13 10° NNE visible
02 Dec ? 19:25:18 17° NNW 19:25:18 17° NNW 19:26:29 10° NNW visible
03 Dec ? 19:05:12 18° N 19:05:12 18° N 19:06:32 10° N visible
04 Dec ? 18:45:05 18° N 18:45:05 18° N 18:46:26 10° N visible
05 Dec ? 18:24:57 16° NNE 18:24:57 16° NNE 18:26:12 10° N visible
05 Dec ? 20:06:22 11° NNW 20:06:22 11° NNW 20:06:34 10° NNW visible
